FW6482 Weather Reports


time (UTC)temp
F
wind
direction
speed
knots
gust
knots
rain 1hr
in
rain 24hr
in
rain mn
in
humidity
%
barometer
mb
20260510233043 55 18 0.9 3.5 0.08 0.20 0.20 87 1003.0
20260510231536 56 19 0.0 1.7 0.10 0.20 0.20 86 1003.1
20260510230036 57 19 0.0 1.7 0.18 0.18 0.18 86 1003.2
20260510224532 57 18 0.0 1.7 0.16 0.16 0.16 84 1003.4
20260510223025 58 18 0.0 2.6 0.12 0.12 0.12 82 1003.8
20260510221535 59 18 0.9 1.7 0.09 0.09 0.09 80 1003.8
20260510220009 59 18 0.9 3.5 0.00 0.00 0.00 72 1003.8
20260510214507 59 18 0.0 1.7 0.00 0.00 0.00 70 1003.9
20260510213006 60 18 0.0 3.5 0.00 0.00 0.00 68 1003.9
20260510211506 60 18 0.9 3.5 0.00 0.00 0.00 67 1003.9
20260510210006 60 18 0.0 4.3 0.00 0.00 0.00 66 1003.9
20260510204506 61 23 0.0 2.6 0.00 0.00 0.00 65 1004.1
20260510203004 61 23 0.9 5.2 0.00 0.00 0.00 64 1004.2
20260510201502 61 24 1.7 4.3 0.00 0.00 0.00 63 1004.1
20260510200002 62 24 1.7 3.5 0.00 0.00 0.00 63 1004.0
20260510194501 62 28 1.7 5.2 0.00 0.00 0.00 62 1004.1
20260510193119 63 34 1.7 7.8 0.00 0.00 0.00 61 1004.1
20260510191600 63 31 1.7 7.0 0.00 0.00 0.00 61 1004.2
20260510190105 64 40 0.9 7.8 0.00 0.00 0.00 60 1004.2
20260510184604 64 20 0.9 7.0 0.00 0.00 0.00 60 1004.3
20260510183056 65 29 0.0 5.2 0.00 0.00 0.00 59 1004.4
20260510181555 66 16 0.9 5.2 0.00 0.00 0.00 57 1004.4
20260510180059 67 351 0.0 1.7 0.00 0.00 0.00 56 1004.4
20260510174600 67 355 0.9 1.7 0.00 0.00 0.00 55 1004.5
20260510173056 68 355 0.9 2.6 0.00 0.00 0.00 55 1004.8
20260510171551 69 355 0.0 1.7 0.00 0.00 0.00 54 1004.9
20260510170050 69 355 0.0 3.5 0.00 0.00 0.00 53 1004.9
20260510164555 69 355 0.9 7.0 0.00 0.00 0.00 52 1005.0
20260510163051 70 5 0.0 4.3 0.00 0.00 0.00 51 1005.0
20260510161551 71 5 0.9 4.3 0.00 0.00 0.00 49 1005.0
20260510160044 71 5 0.9 4.3 0.00 0.00 0.00 50 1005.2
20260510154548 71 5 0.9 7.8 0.00 0.00 0.00 49 1005.4
20260510153041 71 53 1.7 7.0 0.00 0.00 0.00 47 1005.6
20260510151545 71 348 1.7 4.3 0.00 0.00 0.00 48 1005.9
20260510150041 72 243 0.9 3.5 0.00 0.00 0.00 46 1006.2
20260510144546 73 53 0.9 4.3 0.00 0.00 0.00 45 1006.4
20260510143032 73 26 0.9 7.8 0.00 0.00 0.00 47 1006.6
20260510141530 73 45 2.6 5.2 0.00 0.00 0.00 44 1007.0
20260510140027 75 27 0.9 3.5 0.00 0.00 0.00 44 1007.2
20260510134526 75 44 2.6 5.2 0.00 0.00 0.00 43 1007.3
20260510133022 74 19 0.9 7.0 0.00 0.00 0.00 45 1007.5
20260510131520 74 50 3.5 8.7 0.00 0.00 0.00 44 1007.7
20260510130025 74 48 0.9 5.2 0.00 0.00 0.00 46 1007.8
20260510124516 74 13 1.7 4.3 0.00 0.00 0.00 47 1008.1
20260510123012 74 47 1.7 5.2 0.00 0.00 0.00 46 1008.3
20260510121510 73 50 2.6 7.8 0.00 0.00 0.00 46 1008.5
20260510120007 73 259 0.0 3.5 0.00 0.00 0.00 47 1008.8
20260510114506 72 5 0.9 5.2 0.00 0.00 0.00 48 1009.0
20260510113002 72 360 0.9 4.3 0.00 0.00 0.00 48 1009.0
20260510111609 71 5 0.0 3.5 0.00 0.00 0.00 53 1009.1
20260510110057 69 5 0.9 5.2 0.00 0.00 0.00 54 1009.1
20260510104606 69 26 3.5 7.0 0.00 0.00 0.00 53 1009.3
20260510103053 69 33 2.6 5.2 0.00 0.00 0.00 56 1009.5
20260510101555 70 21 1.7 5.2 0.00 0.00 0.00 54 1009.7
20260510100100 69 30 1.7 4.3 0.00 0.00 0.00 55 1009.8
20260510094557 70 33 0.9 3.5 0.00 0.00 0.00 55 1009.9
20260510093050 68 35 1.7 7.0 0.00 0.00 0.00 59 1009.9
20260510091544 68 22 0.0 7.0 0.00 0.00 0.00 58 1010.2
20260510090043 68 15 0.9 5.2 0.00 0.00 0.00 57 1010.3
20260510084538 67 17 0.9 3.5 0.00 0.00 0.00 60 1010.4
20260510083041 66 17 1.7 3.5 0.00 0.00 0.00 60 1010.5
20260510081632 64 15 1.7 4.3 0.00 0.00 0.00 62 1010.6
20260510080032 63 14 0.9 3.5 0.00 0.00 0.00 65 1010.7
20260510074533 61 14 1.7 3.5 0.00 0.00 0.00 69 1010.8
20260510073020 59 17 0.9 2.6 0.00 0.00 0.00 73 1010.9
20260510071524 57 17 0.9 4.3 0.00 0.00 0.00 75 1010.9
20260510070013 56 11 0.9 2.6 0.00 0.00 0.00 77 1010.9
20260510064510 55 11 0.9 2.6 0.00 0.00 0.00 79 1010.8
20260510063011 54 11 0.0 1.7 0.00 0.00 0.00 83 1010.7
20260510061507 52 11 0.9 1.7 0.00 0.00 0.00 86 1010.8
20260510060004 50 11 0.0 1.7 0.00 0.00 0.00 87 1010.8
20260510054502 49 11 0.9 1.7 0.00 0.00 0.00 87 1010.8
20260510053059 49 11 0.0 0.9 0.00 0.00 0.00 88 1010.8
20260510051557 48 11 0.0 0.0 0.00 0.00 0.00 88 1010.8
20260510050053 47 11 0.0 0.0 0.00 0.00 0.00 88 1010.8
20260510044557 46 11 0.0 0.9 0.00 0.00 0.00 88 1010.8
20260510043047 46 11 0.0 0.9 0.00 0.00 0.00 88 1010.9
20260510041550 46 11 0.9 2.6 0.00 0.00 0.00 88 1011.1
20260510040043 46 11 1.7 2.6 0.00 0.00 0.00 88 1011.0
20260510034540 46 11 0.9 2.6 0.00 0.00 0.00 87 1011.0
20260510033048 47 11 0.9 1.7 0.00 0.00 0.00 86 1011.1
20260510031536 47 11 0.9 2.6 0.00 0.00 0.00 86 1011.2
20260510030034 47 11 0.9 2.6 0.00 0.00 0.00 85 1011.3
20260510024532 47 11 1.7 2.6 0.00 0.00 0.00 84 1011.3
20260510023029 48 11 0.0 1.7 0.00 0.00 0.00 83 1011.4
20260510021535 48 11 0.0 1.7 0.00 0.00 0.00 84 1011.5
20260510020029 48 11 0.0 2.6 0.00 0.00 0.00 83 1011.6
20260510014525 49 11 0.9 2.6 0.00 0.00 0.00 83 1011.6
20260510011521 49 14 0.0 3.5 0.00 0.00 0.00 82 1011.6
20260510010020 49 16 0.9 3.5 0.00 0.00 0.00 82 1011.5
20260510004519 50 17 0.0 3.5 0.00 0.00 0.00 80 1011.5
20260510003016 50 34 0.9 1.7 0.00 0.00 0.00 79 1011.8
20260510001520 50 34 1.7 2.6 0.00 0.00 0.00 80 1012.0
20260510000009 51 34 0.9 3.5 0.00 0.00 0.00 76 1012.0
20260509234512 51 40 0.9 2.6 0.00 0.00 0.00 75 1012.2